Regional Weather Roundup
Issued by NWS

Home | Current Version | Previous Version | Text Only | Print | Product List | Glossary On
Versions: 1 2 3 4 5 6 7 8 9 10 11 12 13 14 15 16 17 18 19 20 21 22 23 24 25 26 27 28 29 30 31 32 33 34 35 36 37 38 39 40 41 42 43 44 45 46 47 48 49 50
000
ASUS43 KOAX 191810
RWRNE

WEATHER ROUNDUP FOR NEBRASKA
NATIONAL WEATHER SERVICE OMAHA NE
1200 PM CST SUN NOV 19 2017

NOTES: SATELLITE DATA IS BEING USED TO AUGMENT CLOUD COVER ABOVE
       12000 FEET.
       "FAIR" INDICATES FEW OR NO CLOUDS BELOW 12,000 FEET WITH NO
       SIGNIFICANT WEATHER AND/OR OBSTRUCTIONS TO VISIBILITY.


NEZ001>004-019>022-054>056-191900-
NEBRASKA PANHANDLE

CITY           SKY/WX    TMP DP  RH WIND       PRES   REMARKS
SCOTTSBLUFF    PTSUNNY   52  11  19 W21G31    30.03F
6HR MIN TEMP:  16; 6HR MAX TEMP:  52;

ALLIANCE       MOSUNNY   51  16  24 W15       30.02F
6HR MIN TEMP:  12; 6HR MAX TEMP:  51;

CHADRON        SUNNY     49  18  29 CALM      30.00F
6HR MIN TEMP:  19; 6HR MAX TEMP:  49;

GORDON         FAIR      51  19  28 W15       29.99F
6HR MIN TEMP:  23; 6HR MAX TEMP:  51;

KIMBALL        MOSUNNY   54  17  23 W14       30.07F
SIDNEY         SUNNY     55  16  21 W13       30.07F
6HR MIN TEMP:  16; 6HR MAX TEMP:  55;

$$

NEZ057>060-069>072-079>082-191900-
SOUTHWEST NEBRASKA

CITY           SKY/WX    TMP DP  RH WIND       PRES   REMARKS
NORTH PLATTE   SUNNY     50  23  34 SW10      30.07F
6HR MIN TEMP:  16; 6HR MAX TEMP:  50;

IMPERIAL       SUNNY     52  23  32 SW10      30.09F
6HR MIN TEMP:  18; 6HR MAX TEMP:  52;

LEXINGTON      SUNNY     51  24  34 SW10G17   30.10F
MCCOOK         SUNNY     53  23  31 SW14      30.11F
6HR MIN TEMP:  21; 6HR MAX TEMP:  53;

OGALLALA       SUNNY     49  24  37 SW12      30.07F
$$

NEZ005>010-023>029-035>040-094-191900-
NORTH CENTRAL NEBRASKA

CITY           SKY/WX    TMP DP  RH WIND       PRES   REMARKS
VALENTINE      SUNNY     51  23  33 W12       29.99F
6HR MIN TEMP:  19; 6HR MAX TEMP:  51;

AINSWORTH      SUNNY     48  26  40 W12       30.00F
BROKEN BOW     SUNNY     51  22  31 SW18      30.05F
6HR MIN TEMP:  24; 6HR MAX TEMP:  51;

O`NEILL        SUNNY     50  29  44 SW15      30.02F
ORD            SUNNY     50  23  34 W15G22    30.05F
6HR MIN TEMP:  18; 6HR MAX TEMP:  50;

THEDFORD       SUNNY     52  21  30 W14       30.03F
$$

NEZ041-046>049-061>064-073>077-083>087-191900-
SOUTH CENTRAL NEBRASKA

CITY           SKY/WX    TMP DP  RH WIND       PRES   REMARKS
GRAND ISLAND   FAIR      48  29  47 SW12      30.11F
6HR MIN TEMP:  25; 6HR MAX TEMP:  48;

AURORA         FAIR      49  28  44 SW12      30.11F
HASTINGS       FAIR      50  25  37 W12       30.12F
6HR MIN TEMP:  24; 6HR MAX TEMP:  50;

HEBRON         FAIR      50  27  40 SW7       30.16F
HOLDREGE       FAIR      49  26  39 SW12      30.11F
KEARNEY        FAIR      49  26  41 SW10      30.11F
YORK           FAIR      48  28  46 SW8       30.12F
$$

NEZ011>018-030>034-042>045-191900-
NORTHEAST NEBRASKA

CITY           SKY/WX    TMP DP  RH WIND       PRES   REMARKS
NORFOLK        FAIR      50  25  37 S17       30.04F
6HR MIN TEMP:  16; 6HR MAX TEMP:  51;

ALBION         FAIR      49  28  44 W9        30.07F
BLAIR          FAIR      46  30  54 S14       30.11F
COLUMBUS       FAIR      48  29  47 S13       30.10F
FREMONT        FAIR      47  30  53 S8        30.12F
TEKAMAH        FAIR      47  29  49 SW9       30.11F
6HR MIN TEMP:  16; 6HR MAX TEMP:  47;

WAYNE          FAIR      49  20  31 SW15      30.06F
$$

NEZ050>053-065>068-078-088>093-191900-
SOUTHEAST NEBRASKA

CITY           SKY/WX    TMP DP  RH WIND       PRES   REMARKS
LINCOLN        FAIR      49  27  42 SW14      30.15F
6HR MIN TEMP:  22; 6HR MAX TEMP:  49;

OMAHA EPPLEY   FAIR      46  28  49 S10       30.14F
6HR MIN TEMP:  23; 6HR MAX TEMP:  46;

BEATRICE       FAIR      49  30  48 S13       30.16F
FALLS CITY     FAIR      47  29  49 SW14      30.19F
6HR MIN TEMP:  23; 6HR MAX TEMP:  47;

NEBRASKA CITY  FAIR      47  31  52 SW15      30.16F
PLATTSMOUTH    FAIR      46  31  55 S14       30.15F
$$

NEZ044-045-051>053-067-191900-
OMAHA AREA

CITY           SKY/WX    TMP DP  RH WIND       PRES   REMARKS
OMAHA EPPLEY   FAIR      46  28  49 S10       30.14F
6HR MIN TEMP:  23; 6HR MAX TEMP:  46;

BLAIR          FAIR      46  30  54 S14       30.11F
FREMONT        FAIR      47  30  53 S8        30.12F
MILLARD        FAIR      48  30  49 S9        30.13F
OFFUTT AFB     FAIR      47  28  48 S9        30.14F
PLATTSMOUTH    FAIR      46  31  55 S14       30.15F
WAHOO          FAIR      48  30  50 S14       30.12F
$$




USA.gov is the U.S. government's official web portal to all federal, state and local government web resources and services.